{"data":{"norad_id":45412,"intl_designator":"2020-019BE","name":"STARLINK-1296","alt_names":[],"object_type":"PAYLOAD","status":"ACTIVE","operator":null,"country":"US","launch_date":"2020-03-18","launch_site_code":"AFETR","launch_vehicle":null,"mission":null,"orbit_class":"UNKNOWN","rcs_meters":null,"size_class":null,"mass_kg":null,"dimensions":null,"purposes":["comms"],"wikipedia_slug":null,"has_3d_model":false,"image_url":null,"decayed_at":null,"tle_current":{"epoch":"2026-05-25T03:21:38.433024Z","epoch_age_seconds":56904,"freshness":"FRESH","line1":"1 45412U 20019BE  26145.14002816  .00046627  00000+0  12786-2 0  9998","line2":"2 45412  53.1554 132.3041 0006417  28.5689 331.5665 15.36833004341708","mean_motion":15.36833004,"eccentricity":0.0006417,"inclination_deg":53.1554,"raan_deg":132.3041,"arg_perigee_deg":28.5689,"mean_anomaly_deg":331.5665,"bstar":0.0012786,"rev_number":34170,"period_min":93.699185028694,"perigee_km":451.09624854692,"apogee_km":459.86651437769,"semimajor_km":6833.6183814623,"source":"CELESTRAK","updated_at":"2026-05-25T13:38:16.419608Z"}}}